Simultaneous Nadir Overpasses (SNOs) Predictions

Prediction of SNOs between AQUA and METOP-A Satellite Orbit:

Table of predicted SNOs for the next 14.0 days since TLE Epoch: 11/20/2021
Index Date (AQUA) Time (AQUA) Lat,Lon (AQUA) SZA (AQUA ) Date (METOP-A) Time (METOP-A) Lat,Lon (METOP-A) SZA (METOP-A ) Distance(km) Time Diff (sec)
1 11/23/2021 22:38:57 -77.92, 2.03 81.24 11/23/2021 22:37:52 -77.91, 2.02 81.24 1.33 65
2 11/23/2021 23:28:25 77.95, 169.53 98.81 11/23/2021 23:27:50 77.94, 169.68 98.80 3.80 35
3 11/24/2021 00:17:51 -77.96, -22.88 81.18 11/24/2021 00:18:04 -77.94, -22.89 81.20 2.56 13
4 11/24/2021 01:07:18 77.94, 144.82 98.82 11/24/2021 01:08:02 77.97, 144.79 98.84 3.11 44
5 11/29/2021 01:25:49 77.92, 140.32 99.74 11/29/2021 01:25:03 77.91, 140.26 99.75 1.50 46
6 11/29/2021 02:15:15 -77.92, -52.06 80.26 11/29/2021 02:15:11 -77.92, -52.25 80.25 4.51 4
7 11/29/2021 03:04:43 77.96, 115.41 99.80 11/29/2021 03:05:18 77.94, 115.31 99.78 3.21 35
8 11/29/2021 03:54:13 -78.14, -77.78 79.98 11/29/2021 03:55:23 -78.07, -76.58 80.13 28.43 70
9 12/03/2021 23:16:01 -77.92, -7.24 79.50 12/03/2021 23:14:47 -77.92, -7.13 79.48 2.57 74
10 12/04/2021 00:05:28 77.92, 160.40 100.51 12/04/2021 00:05:03 77.91, 160.25 100.52 3.56 25
11 12/04/2021 00:54:55 -77.96, -32.15 79.44 12/04/2021 00:55:05 -77.93, -32.17 79.47 3.42 10
12 12/04/2021 01:44:22 77.96, 135.49 100.57 12/04/2021 01:45:20 77.97, 135.43 100.57 1.30 58



Historial Predications of SNOs between AQUA and METOP-A
